TIME,DELAY(SENSOR),PRES,OXYGEN,RAWTEMP,T(OPTODE),TCPHASE,FLUOR,BETA(BETA700),BETA(BETA412),BETA(BETA440),CDOM,C(CSC),ED(ED411.90),ED(ED443.80),ED(ED489.40),ED(ED554.70),LU(LU412.20),LU(LU443.80),LU(LU489.40),LU(LU555.00),COMP,TILTX,TILTY,CHECK
1341525749,5802,862.0499877929688000,180.1699981689453000,462.8346862792969000,8.6781187057495120,38.5487899780273440,52,101,99,79,82,14670,2146956352,2147517037,2147290697,2147516854,2147086518,2146925915,2147712850,2147117449,1412,-2,8,29512
1341529345,5807,980.0800170898438000,220.3836975097656200,522.2147216796875000,6.8386139869689940,37.0928306579589840,53,102,100,78,82,14663,2146953536,2147518409,2147294427,2147522614,2147089353,2146916708,2147718208,2147119250,155,-1,8,26197
1341532945,5807,1014.6699829101562000,232.5290985107422000,534.2188720703125000,6.4638180732727050,36.6462898254394500,52,101,100,79,82,14656,2146953179,2147517540,2147296164,2147528356,2147090633,2146916644,2147722560,2147116937,278,-1,8,40229
1341536545,5804,1013.3599853515625000,233.3684997558593800,535.8068847656250000,6.4141559600830080,36.6295394897460940,52,102,100,80,82,14657,2146954715,2147521088,2147295643,2147531337,2147093238,2146918729,2147724187,2147120722,3010,-1,8,13195
1341540145,5805,1018.3499755859375000,235.4644927978515600,536.9848022460938000,6.3773078918457030,36.5409584045410160,53,178,100,80,82,14650,2146955264,2147517321,2147298761,2147526838,2147093312,2146914953,2147724635,2147117659,2802,-1,8,44818
1341543745,5805,1019.2600097656250000,234.9588928222656200,537.6016845703125000,6.3580040931701660,36.5788497924804700,52,100,101,79,82,14649,2146953965,2147517339,2147298203,2147526262,2147091090,2146913682,2147728210,2147120182,596,-1,8,63773
1341547345,5805,1020.5200195312500000,237.3139953613281200,539.3253784179688000,6.3040561676025390,36.4867210388183600,52,102,101,80,82,14651,2146956342,2147518491,2147296786,2147525787,2147088667,2146916434,2147728329,2147116745,3412,-1,8,41986
1341550945,5807,1023.4699707031250000,236.6887054443359400,539.5850219726562000,6.2959270477294920,36.5236091613769500,51,102,100,80,82,14644,2146956708,2147518208,2147300434,2147527698,2147090669,2146916388,2147725046,2147116790,235,-1,8,42912
1341554545,5806,1022.7800292968750000,237.2796936035156200,539.2048950195312000,6.3078289031982420,36.4866104125976560,52,103,101,81,81,14645,2146953280,2147516553,2147298157,2147526363,2147095040,2146914322,2147723922,2147120713,77,-1,8,13859
1341558145,5806,1027.2299804687500000,237.1600036621093800,539.3397827148438000,6.3036041259765625,36.4948997497558600,53,103,99,80,81,14643,2146958811,2147515693,2147298642,2147528640,2147092461,2146910582,2147726848,2147119177,55,-1,8,228
1341561745,5803,1027.5600585937500000,237.2752075195312500,539.6428222656250000,6.2941188812255860,36.4946098327636700,52,100,101,80,81,14644,2146958957,2147518070,2147295826,2147526555,2147091437,2146920512,2147727670,2147116498,3434,-1,8,12332
1341565345,5805,1026.8100585937500000,236.2239990234375000,539.8372192382812000,6.2880330085754395,36.5527801513671900,51,102,100,79,82,14640,2146953371,2147513846,2147298733,2147529371,2147091648,2146917622,2147721938,2147118619,3420,-1,8,46901
1341568945,5804,1035.1400146484375000,237.5233001708984400,539.6234741210938000,6.2947239875793460,36.4814910888671900,51,101,100,80,81,14641,2146954998,2147519469,2147299986,2147527277,2147090980,2146912411,2147727753,2147118976,3150,-1,8,2899
1341572545,5805,1032.9899902343750000,236.7124023437500000,539.7235717773438000,6.2915878295898440,36.5255813598632800,51,103,101,80,81,14641,2146954276,2147516141,2147294381,2147529225,2147090715,2146911780,2147728822,2147117156,3534,-1,8,64582
1341576145,5805,1038.9499511718750000,237.3497009277343800,539.6477050781250000,6.2939639091491700,36.4908599853515600,52,103,100,79,81,14627,2146951405,2147518948,2147297801,2147527881,2147090523,2146917056,2147724416,2147115337,3175,-1,8,63536
1341579745,5807,1023.9099731445312000,235.3213043212890600,537.1583251953125000,6.3718800544738770,36.5515594482421900,52,102,100,80,82,14625,2146955712,2147518875,2147299264,2147528073,2147089984,2146920182,2147725357,2147119277,401,-1,8,24162
1341583345,5804,1025.0600585937500000,236.1790008544922000,537.5966796875000000,6.3581600189208980,36.5153388977050800,53,110,100,79,82,14625,2146955081,2147518683,2147296777,2147524425,2147091702,2146914176,2147727872,2147119817,1045,-1,8,7144
1341586945,5805,1025.8800048828125000,234.7118988037109400,537.2301025390625000,6.3696331977844240,36.5846481323242200,53,102,100,79,81,14621,2146954998,2147517494,2147297380,2147531940,2147091437,2146914020,2147728073,2147119058,3430,-1,8,47562
1341590545,5804,1027.9599609375000000,234.7570953369140600,536.1644287109375000,6.4029731750488280,36.5634803771972660,52,101,101,80,82,14623,2146956352,2147513956,2147298386,2147528192,2147086893,2146915648,2147729078,2147119140,3167,-1,8,56229
1341594145,5804,1022.3800048828125000,233.4635925292968800,537.3734741210938000,6.3651471138000490,36.6529388427734400,52,103,101,80,82,14619,2146956662,2147516297,2147295872,2147524836,2147090669,2146921627,2147728566,2147118308,3474,-1,8,47750
1341597745,5805,1022.4199829101562000,232.2239074707031200,537.5051879882812000,6.3610248565673830,36.7211990356445300,52,102,99,79,83,14619,2146955227,2147514944,2147298176,2147525906,2147087414,2146916955,2147724589,2147119378,3449,-1,8,46058
1341601345,5807,1025.2399902343750000,234.0003051757812500,536.9140014648438000,6.3795218467712400,36.6165008544921900,52,100,101,79,81,14610,2146953846,2147517248,2147298267,2147525302,2147091776,2146919689,2147721746,2147119881,40,-1,8,65366
1341604945,5808,1026.4799804687500000,233.1002960205078000,537.2828979492188000,6.3679809570312500,36.6709899902343750,51,102,99,78,83,14614,2146953188,2147518518,2147298249,2147527305,2147090724,2146920091,2147724662,2147115986,3583,-1,8,35972
1341608545,5803,1024.8100585937500000,232.4766998291015600,537.6328125000000000,6.3570308685302730,36.7102394104003900,53,102,101,80,82,14616,2146953984,2147518418,2147298889,2147526116,2147091008,2146915419,2147722057,2147119661,3456,-1,8,35875
1341612145,5808,1025.7800292968750000,235.0735931396484400,538.4804077148438000,6.3305048942565920,36.5884895324707000,52,107,100,79,82,14617,2146951908,2147521152,2147296438,2147525330,2147092909,2146915693,2147724077,2147118509,6,-1,8,32746
1341615745,5805,1023.4299926757812000,235.5558013916015600,538.1375122070312000,6.3412380218505860,36.5565490722656250,52,105,102,79,82,14613,2146953956,2147517293,2147297170,2147526912,2147091858,2146920868,2147724836,2147118848,60,-1,8,43236
1341619345,5804,1026.7299804687500000,236.6248931884765600,538.6760864257812000,6.3243808746337890,36.5110893249511700,52,102,101,80,82,14612,2146958290,2147517019,2147298148,2147524032,2147089801,2146917869,2147722569,2147117897,2989,-1,8,9586
1341622945,5803,1029.0100097656250000,236.2165985107422000,538.8187866210938000,6.3199138641357420,36.5352287292480500,52,103,100,78,82,14615,2146955264,2147516626,2147297536,2147527862,2147089792,2146917266,2147726116,2147118912,3179,-1,8,44166
1341626545,5803,1028.5600585937500000,236.3509979248047000,538.7899169921875000,6.3208179473876950,36.5271797180175800,52,103,101,79,81,14604,2146953280,2147518820,2147297892,2147528585,2147091593,2146914432,2147724598,2147116608,3259,-1,8,10531
1341630145,5808,1027.1899414062500000,235.7928924560547000,538.4221801757812000,6.3323249816894530,36.5502891540527340,53,102,100,78,81,14604,2146953837,2147518829,2147297938,2147524470,2147092242,2146918016,2147722569,2147118454,2971,-2,8,34169
1341633745,5806,1025.8100585937500000,235.7041931152343800,538.5037841796875000,6.3297729492187500,36.5560417175293000,53,102,100,79,81,14602,2146959323,2147518089,2147298093,2147522880,2147087817,2146918208,2147723446,2147115940,3362,-2,8,19530
1341637345,5808,1026.5000000000000000,236.2098999023437500,538.6973266601562000,6.3237152099609375,36.5326499938964840,52,102,100,79,82,14599,2146954907,2147517458,2147299181,2147525174,2147091273,2146919488,2147723044,2147117796,151,-1,8,22959
1341640945,5807,1023.0800170898438000,236.8572998046875000,538.8814697265625000,6.3179488182067870,36.5027084350585940,53,102,99,81,81,14601,2146953517,2147514998,2147296128,2147526390,2147092809,2146913225,2147725558,2147118994,413,-1,8,29145
1341644545,5806,1031.6899414062500000,237.0856933593750000,538.9086303710938000,6.3171019554138180,36.4910087585449200,52,103,101,79,81,14599,2146954569,2147518875,2147297325,2147526034,2147089024,2146915346,2147726592,2147118436,98,-1,7,46953
1341648145,5807,1032.6800537109375000,235.5354003906250000,537.5125732421875000,6.3607940673828125,36.5468101501464840,52,104,101,78,81,14598,2146956370,2147517348,2147295360,2147525330,2147089206,2146920603,2147722651,2147118555,192,-1,8,48559
1341651745,5806,1032.9899902343750000,235.0054016113281200,538.5211791992188000,6.3292288780212400,36.5927009582519500,52,105,101,78,82,14599,2146955547,2147518272,2147299154,2147528877,2147088073,2146913526,2147726308,2147118144,158,-1,8,28914
1341655345,5801,1007.5300292968750000,232.3242034912109400,533.8082275390625000,6.4766597747802730,36.6494102478027340,52,104,99,79,81,14598,2146956818,2147520182,2147299885,2147526262,2147089819,2146917796,2147723620,2147120768,2512,-1,8,42869
1341658945,5806,1008.2199707031250000,230.7348022460937500,533.5170288085938000,6.4857621192932130,36.7285385131835940,52,102,100,78,82,14597,2146953910,2147518692,2147296036,2147524553,2147091254,2146918628,2147721828,2147118272,2883,-1,8,4582
1341662545,5804,1014.1199951171875000,232.7364959716797000,533.7116699218750000,6.4796729087829590,36.6255989074707000,52,102,102,80,82,14596,2146952923,2147519451,2147296950,2147526162,2147090532,2146914358,2147723291,2147117723,2890,-1,8,44679
1341666145,5803,1016.1900024414062000,231.5189056396484400,532.4199829101562000,6.5200500488281250,36.6672515869140600,52,101,100,80,82,14596,2146957202,2147516242,2147297453,2147523931,2147089380,2146910345,2147722560,2147118125,3084,-1,8,26754
1341668755,5808,1018.1900024414062000,228.9595031738281200,530.8486938476562000,6.5691490173339840,36.7763786315918000,52,181,100,79,81,14594,2146955392,2147517138,2147296219,2147522422,2147090221,2146913664,2147726674,2147116690,201,-1,8,49208
